Temp
66 65 64 65 55 50 45 52 56 57 57 59 62 59 56 53 56 51 55 60 62 60 63 67 70 70 69 69 69 68 68 67 66 66 65 65 64 64 63 63 64 64 65 65 65 66 65 64 63
64 67 66 60 48 41 46 54 57 58 61 61 62 60 56 52 55 52 54 61 62 61 61 62 69 69 68 68 68 68 67 66 65 65 64 64 64 63 63 62 63 63 64 64 64 64 63 62 62
67 71 62 55 46 42 47 57 58 59 62 62 58 60 58 52 55 54 57 61 61 59 61 64 69 68 68 67 67 67 66 65 64 64 63 63 63 62 62 62 62 62 63 63 63 63 62 61 61
68 66 62 52 47 53 56 59 61 59 60 63 58 52 58 61 58 58 61 61 58 57 60 66 68 67 67 66 66 66 65 64 63 62 62 62 62 62 62 62 62 62 62 62 61 61 61 60 60
65 60 52 47 48 56 59 61 61 60 61 59 58 49 52 57 60 60 60 61 57 55 58 62 67 67 66 66 66 65 64 63 62 62 62 62 62 61 61 63 62 61 62 61 61 61 60 60 60
60 57 47 43 48 58 61 61 63 63 60 58 55 52 51 56 57 58 59 57 57 56 57 60 67 67 66 65 64 64 64 63 62 61 61 63 63 61 62 64 63 62 62 61 61 61 61 61 61
56 52 46 44 49 55 60 63 63 63 60 58 59 49 50 53 57 58 56 54 55 55 54 55 57 63 65 64 64 64 64 63 62 61 61 61 61 61 62 62 62 63 62 62 62 61 60 59 59
59 54 45 46 49 54 63 65 68 64 60 63 59 49 46 53 56 54 53 51 51 52 52 52 53 54 53 54 64 64 63 63 62 61 60 59 59 59 60 60 61 61 62 61 61 60 58 57 57
60 51 47 49 52 57 62 61 66 62 59 61 59 56 58 55 55 52 49 48 48 52 50 50 51 51 51 51 57 62 64 63 62 60 60 53 46 47 49 57 59 59 59 60 59 57 56 55 54
56 48 52 61 59 62 64 64 64 59 57 54 54 56 56 55 53 50 50 49 48 48 48 48 48 49 49 57 51 50 53 50 50 48 46 44 44 47 50 52 56 55 56 57 56 55 54 49 42
53 53 59 64 63 63 58 57 62 57 53 57 53 50 53 53 53 51 52 52 51 50 50 48 49 48 48 49 46 45 46 45 46 46 44 43 43 42 41 41 41 40 49 43 44 43 42 42 41
52 61 60 62 63 59 59 62 61 59 62 65 58 55 54 52 52 52 52 51 49 49 50 49 48 48 47 47 45 45 45 44 43 43 44 41 40 39 39 40 39 39 39 39 39 39 41 40 41
55 57 61 66 64 62 64 62 61 60 59 60 58 56 53 53 53 54 54 53 50 50 50 49 48 47 48 47 45 44 44 44 43 43 43 41 40 39 39 39 39 38 38 38 38 37 38 38 40
59 58 59 59 62 60 59 58 56 57 56 56 55 53 54 53 53 52 51 50 52 52 52 49 49 48 48 47 46 45 44 45 43 42 42 43 40 39 39 39 39 38 38 37 37 36 37 37 38
60 55 57 59 57 55 57 53 55 54 55 53 53 53 53 53 52 52 52 52 54 54 54 50 48 48 48 48 47 45 45 46 43 42 43 43 41 39 39 38 38 39 37 37 36 36 35 35 38
55 52 47 55 57 59 57 48 55 51 53 49 49 50 53 52 54 52 53 55 54 53 50 50 55 49 48 46 45 46 45 43 43 41 41 43 43 41 39 38 38 39 37 37 36 35 34 34 34
48 42 46 51 57 55 54 46 53 52 51 48 46 49 52 52 49 51 54 55 56 50 50 49 48 48 47 46 45 44 44 42 42 41 41 42 43 43 39 38 38 38 37 36 36 34 34 33 32
42 43 40 41 51 52 46 44 50 52 52 50 46 48 51 50 48 53 54 56 56 51 49 48 48 47 46 44 44 43 43 41 41 40 41 42 42 42 39 38 37 37 35 35 34 34 32 32 32
50 45 42 45 53 49 43 43 48 50 48 46 46 48 48 48 49 51 53 52 51 50 48 48 48 46 45 43 42 41 39 40 40 41 43 42 41 41 39 37 37 36 35 36 34 32 32 30 31
50 45 43 48 54 50 44 44 46 50 51 48 49 48 46 46 47 50 50 53 51 47 47 48 46 45 44 43 41 40 39 39 39 39 40 41 41 40 40 38 37 36 34 34 33 32 30 30 30
47 44 43 44 48 50 46 40 44 50 54 53 50 49 48 47 48 51 53 48 46 47 46 46 45 44 44 43 41 40 39 38 38 38 38 39 40 40 39 38 36 35 33 33 32 31 30 29 29
42 52 50 48 43 36 47 31 41 45 48 51 50 47 47 49 52 53 49 46 46 46 45 44 45 43 44 42 40 38 36 35 35 35 36 37 39 39 39 39 37 35 34 32 33 35 31 29 28
47 52 48 47 41 38 41 34 39 44 43 46 48 49 47 50 52 48 45 45 47 44 44 43 43 43 42 41 39 36 36 35 35 35 35 35 36 37 38 38 36 35 34 34 34 33 31 31 30
53 48 45 42 39 27 37 33 35 39 43 46 50 50 50 50 48 46 46 47 45 46 42 40 41 41 41 40 39 37 36 35 34 34 33 34 34 36 36 38 36 35 35 34 35 34 33 32 32
47 39 25 26 25 23 41 36 35 44 47 46 45 47 48 47 45 44 43 45 46 42 40 41 41 41 41 39 39 38 37 35 34 33 33 33 35 35 36 38 37 37 37 36 36 36 35 35 34
42 40 26 19 23 29 40 31 35 47 47 46 46 45 44 43 44 43 43 43 42 41 40 40 41 41 40 39 39 38 37 35 35 35 36 35 35 37 38 38 38 38 38 38 37 35 35 35 34
42 35 43 34 31 25 35 34 42 48 43 43 42 42 41 42 42 41 42 41 41 40 40 39 40 41 40 39 38 37 37 36 36 37 36 36 36 39 40 38 36 37 35 35 34 33 33 34 33
44 46 34 29 17 12 29 34 35 41 40 42 40 40 41 42 41 41 41 41 41 40 40 39 39 40 39 39 38 39 36 37 37 37 37 37 38 38 38 38 37 35 34 33 32 32 32 31 32
40 34 34 34 28 20 24 26 42 43 45 41 39 41 40 40 40 41 41 41 41 40 39 39 39 39 39 38 38 36 37 37 37 36 37 38 38 39 37 36 35 34 32 32 32 31 31 31 31
44 39 30 24 26 30 30 31 45 47 45 43 42 42 41 41 41 41 41 41 40 40 40 39 38 38 38 38 37 37 37 37 36 37 39 41 39 39 35 35 33 32 32 32 32 30 31 30 30
MSLP
1010.31 1010.83 1011.13 1011.26 1012.32 1012.75 1012.15 1010.70 1009.60 1009.35 1009.41 1009.79 1009.88 1010.49 1011.52 1012.81 1013.73 1015.47 1015.58 1015.70 1015.91 1016.63 1016.80 1017.05 1017.37 1017.67 1017.98 1018.18 1018.42 1018.78 1019.14 1019.47 1019.67 1019.79 1019.80 1019.84 1019.99 1020.11 1020.19 1020.12 1019.93 1019.71 1019.55 1019.39 1019.28 1019.12 1019.14 1019.19 1019.22
1010.41 1011.05 1011.18 1011.42 1012.41 1012.93 1011.76 1010.21 1009.45 1009.37 1009.77 1010.31 1010.55 1011.41 1012.26 1013.55 1014.41 1015.52 1016.04 1016.09 1016.12 1016.56 1017.04 1017.34 1017.55 1017.82 1018.19 1018.46 1018.72 1019.07 1019.32 1019.70 1019.93 1020.05 1020.11 1020.16 1020.22 1020.30 1020.40 1020.35 1020.23 1020.04 1019.84 1019.67 1019.58 1019.45 1019.47 1019.51 1019.48
1010.29 1010.46 1011.14 1011.70 1012.32 1012.27 1011.34 1009.60 1009.18 1009.47 1009.95 1010.22 1011.31 1012.06 1013.09 1014.19 1014.89 1015.41 1015.71 1016.24 1016.55 1016.96 1017.29 1017.51 1017.71 1018.07 1018.53 1018.87 1019.04 1019.33 1019.58 1019.91 1020.15 1020.26 1020.34 1020.42 1020.46 1020.50 1020.51 1020.47 1020.36 1020.27 1020.13 1020.00 1019.88 1019.80 1019.76 1019.74 1019.64
1010.37 1010.63 1011.49 1011.64 1011.73 1010.95 1010.18 1008.91 1008.86 1009.71 1010.16 1010.49 1011.53 1012.86 1013.65 1014.04 1014.80 1015.37 1016.02 1016.60 1017.17 1017.49 1017.61 1017.62 1018.04 1018.46 1018.79 1019.03 1019.25 1019.55 1019.78 1020.06 1020.33 1020.46 1020.60 1020.59 1020.58 1020.69 1020.53 1020.50 1020.31 1020.46 1020.28 1020.25 1020.14 1020.06 1019.98 1019.94 1019.73
1010.39 1011.02 1011.65 1011.69 1011.18 1010.08 1009.14 1008.55 1008.65 1009.41 1009.94 1010.99 1011.73 1013.32 1014.16 1014.75 1014.89 1015.57 1016.36 1017.01 1017.47 1017.91 1017.90 1018.03 1018.29 1018.62 1019.00 1019.23 1019.48 1019.73 1019.92 1020.19 1020.42 1020.61 1020.76 1020.69 1020.66 1020.71 1020.70 1020.28 1020.47 1020.44 1020.33 1020.39 1020.28 1020.21 1020.15 1019.91 1019.77
1010.93 1011.58 1012.07 1011.73 1010.73 1009.44 1008.48 1008.18 1008.40 1009.17 1010.17 1011.23 1012.09 1013.45 1014.69 1015.17 1015.17 1016.08 1016.68 1017.39 1017.78 1018.02 1018.24 1018.35 1018.50 1018.80 1019.22 1019.44 1019.70 1019.86 1020.05 1020.30 1020.47 1020.69 1020.82 1020.59 1020.50 1020.73 1020.58 1020.23 1020.33 1020.29 1020.31 1020.30 1020.16 1020.10 1020.01 1019.79 1019.75
1010.87 1011.75 1011.71 1011.11 1010.27 1009.14 1007.96 1007.79 1008.21 1008.74 1009.82 1010.60 1011.44 1013.46 1014.96 1015.66 1015.76 1016.24 1016.99 1017.68 1018.13 1018.34 1018.56 1018.70 1018.75 1018.93 1019.27 1019.54 1019.76 1019.91 1020.08 1020.33 1020.54 1020.74 1020.86 1020.89 1020.83 1020.81 1020.66 1020.56 1020.39 1020.14 1020.11 1020.07 1020.00 1020.04 1020.19 1020.27 1020.25
1010.30 1011.12 1011.24 1010.77 1009.94 1008.58 1007.44 1007.45 1007.22 1008.13 1009.61 1010.39 1011.18 1012.67 1014.40 1015.14 1015.91 1016.61 1017.26 1017.88 1018.28 1018.60 1018.84 1019.00 1019.05 1019.21 1019.49 1019.66 1019.71 1019.90 1020.10 1020.33 1020.55 1020.73 1020.90 1021.09 1021.14 1021.05 1020.93 1020.81 1020.53 1020.39 1020.25 1020.16 1020.09 1020.24 1020.54 1020.75 1020.59
1009.71 1010.80 1010.88 1009.99 1009.36 1007.98 1006.96 1007.31 1007.55 1008.42 1009.48 1010.46 1011.10 1011.81 1012.38 1014.30 1015.88 1016.93 1017.89 1018.56 1018.94 1019.18 1019.19 1019.16 1019.31 1019.52 1019.71 1019.93 1019.92 1019.87 1020.08 1020.27 1020.43 1020.67 1020.83 1021.28 1021.45 1021.36 1021.29 1021.03 1020.95 1020.89 1020.61 1020.48 1020.42 1020.73 1020.83 1021.01 1020.92
1009.65 1010.23 1009.52 1008.28 1007.76 1007.15 1006.62 1007.00 1007.53 1008.57 1009.62 1010.62 1011.60 1012.38 1013.13 1014.54 1015.56 1016.58 1017.57 1018.43 1019.02 1019.26 1019.38 1019.40 1019.59 1019.70 1019.94 1019.86 1020.04 1020.13 1020.28 1020.45 1020.64 1020.82 1021.10 1021.28 1021.36 1021.16 1021.30 1021.28 1021.22 1021.28 1021.07 1020.89 1020.93 1021.02 1021.02 1021.16 1021.24
1009.04 1009.05 1008.17 1007.44 1006.78 1006.51 1006.62 1006.75 1007.23 1008.28 1009.68 1009.52 1010.67 1012.68 1013.69 1014.58 1015.59 1016.36 1017.19 1017.57 1018.10 1018.70 1019.15 1019.47 1019.56 1019.65 1019.90 1019.97 1020.17 1020.34 1020.51 1020.62 1020.77 1020.90 1021.08 1021.24 1021.32 1021.32 1021.41 1021.51 1021.61 1021.67 1021.38 1021.50 1021.48 1021.47 1021.36 1021.28 1021.39
1008.66 1008.12 1007.86 1007.30 1006.75 1006.77 1006.56 1006.58 1007.14 1007.57 1007.42 1007.80 1009.69 1010.73 1012.53 1014.21 1014.94 1015.61 1016.59 1017.50 1018.09 1018.56 1018.85 1019.04 1019.27 1019.39 1019.69 1019.96 1020.21 1020.32 1020.47 1020.68 1020.93 1021.01 1021.13 1021.44 1021.47 1021.51 1021.53 1021.55 1021.58 1021.63 1021.60 1021.62 1021.65 1021.63 1021.44 1021.40 1021.33
1008.34 1007.99 1007.73 1007.25 1007.06 1006.80 1006.48 1006.73 1006.87 1007.53 1008.04 1008.66 1010.44 1011.90 1012.85 1014.01 1015.12 1015.93 1016.33 1017.16 1017.72 1018.18 1018.53 1018.81 1019.09 1019.22 1019.49 1019.85 1020.10 1020.31 1020.42 1020.61 1020.69 1020.85 1021.03 1021.18 1021.30 1021.46 1021.41 1021.38 1021.40 1021.45 1021.45 1021.56 1021.60 1021.71 1021.65 1021.44 1021.31
1007.98 1007.96 1007.88 1007.70 1007.36 1007.13 1007.19 1007.32 1007.46 1008.51 1008.90 1009.97 1010.93 1011.91 1012.96 1013.73 1014.77 1016.06 1016.84 1017.22 1017.48 1017.79 1018.17 1018.52 1018.93 1019.10 1019.36 1019.60 1019.75 1019.88 1020.10 1020.25 1020.49 1020.57 1020.77 1020.81 1020.96 1021.18 1021.17 1021.20 1021.13 1021.15 1021.17 1021.25 1021.39 1021.49 1021.48 1021.42 1021.32
1008.01 1008.28 1008.00 1008.28 1007.93 1008.06 1007.76 1008.28 1009.19 1009.50 1010.34 1011.24 1011.92 1012.58 1013.58 1014.44 1015.10 1015.56 1016.30 1016.60 1016.42 1017.16 1018.00 1018.53 1018.93 1019.14 1019.23 1019.27 1019.44 1019.69 1019.85 1020.00 1020.43 1020.40 1020.44 1020.56 1020.58 1020.76 1020.74 1020.93 1020.97 1020.77 1020.82 1020.95 1021.13 1021.17 1021.31 1021.38 1021.26
1008.61 1008.90 1009.23 1009.14 1008.71 1008.62 1008.31 1009.78 1009.88 1010.45 1010.82 1011.97 1012.53 1013.14 1013.74 1014.28 1014.58 1015.49 1015.92 1016.12 1016.86 1017.24 1017.67 1018.24 1018.65 1018.96 1019.15 1019.35 1019.50 1019.60 1019.79 1019.95 1020.11 1020.20 1020.14 1020.04 1020.06 1020.29 1020.50 1020.69 1020.74 1020.47 1020.53 1020.67 1020.81 1021.05 1021.25 1021.30 1021.28
1010.01 1010.34 1010.12 1009.82 1009.54 1009.42 1009.70 1010.73 1010.86 1011.16 1011.81 1012.48 1012.84 1013.10 1013.48 1014.32 1015.26 1015.66 1015.88 1016.34 1016.95 1017.56 1018.00 1018.59 1019.14 1019.55 1019.72 1019.61 1019.66 1019.85 1019.84 1020.03 1020.00 1019.83 1019.84 1019.86 1020.03 1020.09 1020.34 1020.41 1020.25 1020.17 1020.30 1020.49 1020.64 1020.81 1020.93 1021.12 1021.08
1011.18 1011.07 1010.99 1010.89 1010.61 1010.70 1011.34 1011.82 1011.73 1011.67 1011.98 1012.40 1013.05 1013.15 1013.45 1014.29 1014.87 1015.32 1015.96 1016.60 1017.30 1017.88 1018.59 1019.04 1019.47 1019.79 1020.00 1020.17 1020.10 1020.08 1020.04 1020.12 1020.00 1019.78 1019.53 1019.50 1019.63 1019.68 1019.87 1019.96 1019.99 1020.04 1020.17 1020.25 1020.37 1020.43 1020.54 1020.66 1020.76
1011.38 1011.63 1011.66 1011.21 1010.89 1011.33 1012.05 1012.45 1012.44 1011.91 1011.77 1012.19 1012.66 1013.31 1014.26 1014.96 1015.31 1016.02 1016.70 1017.26 1017.89 1018.57 1019.11 1019.51 1019.76 1020.11 1020.32 1020.38 1020.53 1020.55 1020.58 1020.25 1020.00 1019.72 1019.45 1019.44 1019.54 1019.54 1019.59 1019.66 1019.60 1019.52 1019.72 1019.56 1019.73 1020.02 1020.30 1020.52 1020.58
1011.70 1012.09 1012.18 1011.74 1011.20 1011.50 1012.35 1013.13 1012.96 1012.68 1012.55 1012.04 1012.26 1013.61 1014.57 1015.23 1015.84 1016.48 1017.01 1017.38 1018.30 1019.14 1019.63 1019.82 1020.12 1020.34 1020.33 1020.38 1020.49 1020.43 1020.36 1020.16 1019.99 1019.75 1019.53 1019.29 1019.21 1019.12 1019.08 1018.96 1018.84 1018.76 1018.98 1019.10 1019.28 1019.62 1020.03 1020.20 1020.28
1012.22 1012.54 1012.56 1012.50 1011.88 1011.69 1012.48 1013.33 1013.50 1012.99 1012.69 1012.58 1013.07 1013.69 1014.50 1015.14 1015.95 1016.73 1017.51 1018.27 1019.05 1019.77 1020.17 1020.41 1020.56 1020.54 1020.51 1020.46 1020.49 1020.47 1020.37 1020.20 1019.99 1019.59 1019.39 1018.98 1018.79 1018.68 1018.60 1018.41 1018.43 1018.44 1018.51 1018.68 1018.76 1019.05 1019.48 1019.81 1019.95
1012.61 1012.62 1012.64 1012.47 1012.59 1013.04 1013.06 1014.15 1014.47 1014.35 1013.75 1013.74 1014.34 1014.84 1015.45 1015.82 1016.58 1017.21 1018.11 1018.98 1019.59 1020.26 1020.64 1020.70 1020.80 1020.81 1020.76 1020.58 1020.60 1020.74 1020.58 1020.43 1019.98 1019.62 1019.17 1019.04 1018.62 1018.32 1018.02 1017.80 1017.71 1017.66 1017.81 1017.99 1017.86 1017.94 1018.32 1018.87 1019.44
1013.31 1012.87 1012.86 1013.04 1013.41 1013.83 1014.42 1015.27 1015.70 1015.32 1015.12 1014.94 1015.01 1015.26 1016.21 1016.82 1017.23 1018.15 1018.92 1019.61 1020.08 1020.73 1021.10 1021.20 1021.13 1021.03 1020.83 1020.80 1020.76 1020.62 1020.50 1020.23 1019.61 1019.53 1019.19 1018.49 1018.11 1017.82 1017.38 1017.17 1017.07 1016.98 1016.95 1016.93 1016.94 1017.14 1017.46 1017.75 1018.15
1013.70 1013.51 1013.63 1014.19 1014.80 1015.70 1016.34 1016.30 1017.16 1016.77 1016.83 1016.31 1016.16 1016.18 1016.39 1017.46 1018.35 1019.01 1019.73 1020.40 1020.96 1021.30 1021.45 1021.49 1021.38 1021.15 1021.06 1020.91 1020.61 1020.42 1020.18 1019.86 1019.70 1019.10 1018.73 1018.26 1017.72 1017.33 1016.87 1016.27 1016.08 1015.93 1015.98 1016.00 1015.98 1016.13 1016.39 1016.64 1017.01
1014.89 1015.23 1016.19 1016.58 1017.00 1017.75 1017.27 1017.30 1018.35 1017.56 1017.45 1017.41 1017.60 1017.82 1018.19 1018.61 1019.35 1019.99 1020.69 1021.11 1021.50 1021.80 1021.81 1021.74 1021.54 1021.37 1021.13 1020.77 1020.44 1020.14 1019.68 1019.51 1019.21 1018.71 1018.31 1017.70 1017.16 1016.63 1015.80 1015.32 1015.03 1014.88 1014.75 1014.93 1015.01 1015.36 1015.63 1015.70 1015.88
1016.27 1016.58 1017.95 1018.77 1019.07 1018.74 1018.11 1018.60 1018.54 1018.19 1018.19 1018.43 1018.74 1019.15 1019.43 1019.86 1020.45 1021.04 1021.53 1021.85 1022.03 1022.04 1021.99 1021.87 1021.64 1021.41 1020.94 1020.55 1020.16 1019.78 1019.20 1019.11 1018.57 1017.97 1017.44 1016.92 1016.33 1015.55 1014.98 1014.58 1014.21 1013.89 1014.01 1014.18 1014.13 1013.93 1014.11 1014.47 1014.67
1017.16 1017.74 1018.52 1019.21 1019.96 1019.89 1019.59 1019.30 1018.75 1018.44 1018.87 1019.34 1019.88 1020.28 1020.63 1020.98 1021.60 1022.04 1022.17 1022.26 1022.38 1022.29 1022.12 1021.92 1021.69 1021.31 1020.79 1020.28 1019.85 1019.43 1019.10 1018.77 1017.95 1017.16 1016.71 1016.13 1015.30 1014.78 1014.23 1013.72 1013.35 1013.31 1013.29 1013.07 1012.73 1012.62 1012.74 1013.03 1013.43
1018.35 1018.66 1019.19 1020.24 1021.39 1021.04 1020.10 1019.49 1018.86 1018.85 1019.26 1020.07 1020.63 1021.09 1021.48 1021.86 1022.27 1022.50 1022.48 1022.47 1022.36 1022.28 1022.22 1022.00 1021.67 1021.21 1020.60 1020.08 1019.70 1019.24 1018.89 1018.12 1017.21 1016.60 1015.99 1015.30 1014.48 1013.95 1013.39 1012.95 1012.67 1012.45 1012.39 1011.98 1011.87 1011.85 1011.72 1012.11 1012.60
1019.31 1019.63 1020.43 1021.37 1022.02 1021.81 1021.00 1020.05 1019.13 1018.77 1019.22 1020.06 1021.02 1021.54 1021.87 1022.32 1022.61 1022.62 1022.63 1022.59 1022.63 1022.57 1022.34 1022.11 1021.70 1021.20 1020.61 1020.09 1019.76 1019.10 1018.29 1017.45 1016.78 1016.05 1015.29 1014.50 1013.97 1013.19 1012.39 1012.46 1011.96 1011.72 1011.19 1010.80 1010.46 1010.80 1010.95 1011.30 1011.86
1020.36 1021.00 1021.61 1022.33 1022.42 1021.86 1021.07 1020.02 1018.61 1018.65 1019.05 1019.83 1021.04 1021.71 1022.13 1022.54 1022.64 1022.80 1022.82 1022.95 1022.99 1022.79 1022.52 1022.23 1021.81 1021.29 1020.68 1020.09 1019.56 1018.78 1017.77 1016.98 1016.30 1015.64 1014.90 1014.05 1013.40 1012.47 1012.29 1011.99 1011.35 1010.76 1010.27 1009.93 1009.63 1009.80 1009.94 1010.40 1010.96
Wind_Speed
7 7 1 2 4 5 4 7 2 2 1 5 2 4 4 4 1 4 3 6 14 9 7 11 16 14 13 12 11 10 10 9 9 8 9 9 9 9 9 9 9 10 9 9 9 9 10 11 11
5 4 1 2 5 2 6 5 5 3 6 7 6 3 7 2 3 6 8 9 11 9 6 7 15 13 12 10 10 10 9 9 8 7 7 8 8 8 8 9 9 10 10 10 10 9 10 10 11
4 2 3 4 3 5 5 5 5 3 9 1 4 5 3 3 3 10 6 12 9 7 7 8 15 13 13 10 10 9 8 9 7 6 7 7 7 7 8 7 8 9 10 10 9 10 10 10 10
3 3 4 3 6 7 7 6 6 6 2 5 4 7 3 4 10 7 14 11 8 6 6 12 15 14 12 11 10 9 8 8 6 6 6 6 7 6 6 6 8 8 11 9 9 9 9 9 10
3 3 1 2 4 6 5 4 9 7 7 4 3 4 3 4 10 18 14 11 10 6 6 7 14 14 12 10 9 8 8 7 6 5 5 5 5 6 4 5 7 6 9 8 8 8 8 8 9
4 3 2 4 5 6 6 6 7 5 4 6 6 5 4 7 18 13 13 9 7 9 7 6 13 13 11 10 9 9 9 7 6 5 5 7 9 3 5 6 6 7 6 6 7 7 6 7 8
5 4 5 4 5 7 4 8 6 7 7 6 11 7 4 6 11 13 11 8 7 7 7 5 6 10 12 10 10 10 9 8 8 7 5 8 7 8 6 8 7 7 4 5 7 8 13 13 11
6 5 3 4 3 7 3 6 5 7 4 4 6 8 8 11 13 11 10 8 7 6 6 6 6 6 6 4 10 9 9 8 7 6 4 7 8 10 9 10 9 10 10 8 6 9 11 10 10
4 3 5 7 4 8 3 5 3 3 8 1 3 7 7 23 18 14 10 5 4 4 6 6 6 5 5 4 4 7 8 8 7 5 5 5 3 5 7 8 8 9 10 7 8 8 9 8 9
5 4 9 8 6 8 5 6 9 6 4 1 4 11 21 22 21 19 15 12 8 7 6 6 6 6 5 3 3 1 2 3 4 5 5 3 2 3 5 6 8 9 8 7 7 7 8 7 3
3 6 6 9 7 7 3 3 7 10 5 9 13 19 21 22 19 18 16 16 13 9 5 6 7 6 6 3 2 1 1 2 3 5 5 4 3 3 2 2 3 3 5 3 4 4 3 4 3
2 7 5 6 4 2 5 5 6 10 9 7 22 28 25 24 21 20 16 12 10 9 8 8 7 6 6 4 3 3 3 3 2 4 5 3 2 2 2 1 1 2 1 0 1 2 2 3 4
5 2 3 8 10 7 1 7 7 8 6 12 20 22 23 20 18 15 14 11 10 9 8 9 8 7 7 6 4 4 4 3 4 5 5 4 4 3 3 2 1 1 1 1 2 2 3 2 2
4 4 6 4 8 6 4 4 1 6 7 14 20 21 19 20 19 10 10 11 12 10 11 8 7 7 6 5 4 3 4 4 4 4 5 6 4 4 4 3 3 2 2 2 2 2 3 2 1
4 4 7 8 8 4 2 5 8 2 6 10 13 13 12 12 11 13 13 15 16 12 10 8 7 7 7 7 5 4 4 3 2 3 6 6 6 6 6 4 4 4 3 2 1 1 2 2 1
5 6 5 4 11 5 5 6 6 4 10 9 8 8 11 11 16 9 13 14 10 10 12 8 7 7 6 4 3 2 2 2 3 2 4 7 7 6 5 4 4 4 3 3 2 3 3 3 3
8 2 3 8 7 4 9 5 8 5 2 4 6 9 11 10 5 7 12 12 12 9 8 7 6 5 3 2 2 3 3 2 2 2 3 6 5 5 5 5 5 5 4 3 3 3 3 3 3
4 5 5 3 6 8 6 5 7 7 6 9 8 9 11 9 7 11 11 10 9 7 7 7 5 5 4 2 2 2 3 2 2 2 2 5 5 6 5 5 5 4 4 4 3 5 4 4 4
4 3 2 4 3 4 2 4 9 11 7 7 9 8 5 7 6 7 7 8 10 8 8 6 7 4 2 2 2 2 1 2 2 2 1 1 2 4 4 4 5 5 5 7 6 4 6 4 3
6 5 4 6 5 2 4 7 8 7 7 7 10 9 8 7 8 10 9 9 8 7 7 6 5 4 2 2 1 2 2 3 3 2 4 4 4 4 4 5 6 6 5 6 6 5 3 3 4
3 5 5 6 4 4 5 5 9 7 13 14 9 8 7 12 14 12 10 9 9 7 6 5 4 3 2 2 1 1 2 2 2 2 3 3 5 6 6 6 5 5 4 5 6 6 7 5 4
3 6 6 9 2 2 2 4 5 9 14 15 9 9 7 10 11 10 11 10 8 5 4 5 3 3 1 0 2 1 2 2 3 3 3 5 6 7 7 7 6 7 4 6 6 7 6 5 5
3 9 5 4 0 3 9 4 8 7 11 17 12 13 11 8 11 11 10 8 7 6 4 3 3 2 2 3 1 1 2 3 4 4 6 7 6 7 7 7 7 7 5 7 9 7 7 7 5
8 6 5 4 3 5 8 4 5 9 12 9 8 11 16 13 12 12 10 9 6 4 4 3 2 2 3 2 2 2 5 6 5 5 5 6 5 6 8 10 8 7 7 8 8 8 9 9 8
12 6 5 8 7 3 3 7 4 14 8 5 4 9 10 12 12 11 9 6 5 5 3 2 2 2 5 5 4 4 7 7 8 7 5 7 6 5 9 10 9 7 8 7 6 6 8 8 9
6 2 5 3 1 4 6 3 2 7 7 9 8 8 10 11 9 8 7 6 5 4 2 2 2 5 6 5 6 6 7 4 6 8 7 7 7 9 10 10 10 8 7 8 12 10 10 11 10
7 5 2 2 3 3 0 1 6 4 7 7 8 9 9 8 7 7 6 4 3 3 1 2 5 6 6 7 6 7 7 7 9 10 8 7 9 8 9 8 7 5 10 12 13 8 9 10 7
5 4 4 4 4 4 4 2 2 4 4 5 5 7 6 6 6 5 4 3 2 3 3 5 6 6 6 7 7 7 7 8 10 9 10 9 10 8 8 7 11 8 9 9 8 9 9 8 7
6 5 5 4 3 2 3 4 5 6 2 7 4 4 6 6 5 4 2 2 3 2 4 5 6 7 8 7 7 8 9 10 8 8 9 9 8 8 7 12 10 8 10 9 10 9 8 10 10
1 3 4 5 5 3 2 3 5 6 3 8 7 6 5 5 5 3 2 1 2 4 5 6 7 7 7 7 7 9 9 9 9 9 10 11 9 6 8 10 9 9 10 9 8 9 8 11 11
Wind_Direction
124 143 155 54 53 61 272 269 268 225 17 354 20 60 98 39 107 190 216 146 136 143 147 147 149 147 140 135 130 123 120 106 96 87 76 69 61 52 49 44 40 35 31 27 23 21 22 18 12
124 152 28 80 92 78 269 260 252 223 135 154 90 62 41 53 87 114 118 158 138 137 133 139 148 140 131 129 132 126 119 110 98 89 77 64 51 46 49 43 39 36 29 25 23 21 20 14 7
125 231 88 107 124 186 228 225 220 86 143 89 100 59 93 162 88 148 143 140 129 122 130 158 139 134 131 133 133 126 123 112 98 82 68 51 38 44 51 34 41 36 27 21 22 20 15 10 4
165 23 30 116 233 248 227 241 169 111 100 59 108 77 66 252 154 142 135 134 116 125 137 144 140 137 133 134 132 130 131 118 101 84 59 40 40 47 35 22 52 20 25 21 21 16 17 7 1
32 56 1 281 258 263 258 272 151 157 147 127 134 159 68 27 113 133 135 135 139 132 132 132 145 142 136 135 131 135 135 127 111 89 61 47 40 43 355 18 53 29 23 24 18 17 21 7 10
41 93 37 265 242 268 286 169 149 134 125 154 95 111 128 130 128 138 133 134 138 131 125 140 150 145 139 139 143 144 138 138 127 109 94 52 56 47 347 24 6 18 8 14 6 25 354 15 23
124 96 232 252 254 287 239 154 186 165 145 219 149 117 115 145 139 135 125 117 123 123 129 137 139 147 152 152 154 153 149 142 136 119 95 54 41 30 4 7 355 353 21 0 6 36 50 36 27
123 111 260 252 267 271 244 190 189 149 168 79 152 168 175 169 143 120 117 122 129 140 143 147 142 133 146 154 158 157 153 148 146 141 115 64 59 59 39 19 7 13 4 355 17 39 44 30 18
141 70 260 242 223 256 199 180 89 78 121 168 162 149 155 139 134 127 123 99 117 150 157 156 148 151 155 155 196 168 167 165 171 161 148 87 81 72 44 22 19 7 3 2 38 48 32 26 12
124 147 233 216 222 247 235 178 159 119 138 157 59 80 126 139 146 145 154 156 163 168 182 168 158 175 163 185 187 185 117 125 133 128 122 119 113 109 71 36 29 24 24 53 50 38 24 23 12
179 200 240 281 263 230 215 205 167 128 237 203 172 146 145 149 153 153 161 164 169 171 167 174 180 185 173 200 160 165 150 162 148 154 152 153 119 84 72 54 33 26 29 40 34 18 27 26 19
279 257 252 285 310 293 203 156 191 180 214 179 161 157 150 159 162 161 161 160 157 160 166 171 161 158 161 146 127 147 144 136 154 187 169 160 145 142 133 96 73 63 26 57 346 330 321 38 17
196 248 295 284 298 254 307 220 211 228 39 119 140 156 158 158 158 162 158 158 156 164 166 174 164 154 156 156 152 151 171 165 193 185 192 181 169 181 167 168 166 133 111 212 285 331 337 360 45
286 291 279 312 280 292 245 281 166 25 108 132 151 162 166 161 162 143 148 159 172 169 175 165 171 159 149 143 158 171 174 186 176 187 199 196 179 189 187 193 209 191 178 209 218 248 260 193 135
267 324 359 10 318 37 307 21 335 235 99 140 160 157 152 152 155 166 162 177 177 175 164 167 159 162 163 166 161 163 189 179 224 222 206 206 193 204 189 198 215 215 189 198 190 253 145 157 266
16 47 17 332 11 339 95 291 336 178 139 156 154 151 156 167 180 158 175 186 175 157 164 162 160 166 166 158 149 167 216 220 249 221 218 214 205 207 204 205 229 222 199 193 188 170 193 221 236
6 305 339 341 6 352 46 337 339 57 47 185 171 170 173 170 124 168 181 182 174 160 152 140 132 153 156 119 78 85 58 41 320 247 225 229 223 233 213 222 238 220 212 210 198 191 182 213 245
315 6 354 324 324 46 36 345 320 327 249 194 194 194 180 160 178 176 172 167 150 130 111 120 119 120 99 93 76 48 55 25 46 358 259 200 227 238 221 236 245 227 218 227 214 207 208 206 229
99 77 327 285 294 101 96 22 334 328 356 189 192 189 153 105 131 111 120 107 119 102 113 129 129 147 163 58 71 30 349 292 293 351 14 274 264 268 242 243 245 227 214 222 201 196 208 238 218
57 33 337 294 287 36 145 35 321 341 355 281 198 139 124 115 106 119 128 132 106 115 122 127 132 145 104 119 182 191 207 239 250 284 275 263 267 253 244 237 239 227 213 219 213 185 190 223 186
14 25 309 260 304 306 126 1 11 327 25 31 50 109 133 141 135 137 116 106 99 111 138 133 135 124 97 135 170 327 336 324 312 304 297 266 276 258 265 266 248 249 214 224 210 191 185 201 214
4 321 280 286 355 272 31 272 20 336 11 11 34 53 69 121 121 112 112 106 115 120 105 113 114 102 98 282 45 255 224 258 255 250 271 297 291 278 268 254 240 237 221 215 214 210 196 160 192
305 310 291 320 13 96 358 69 335 356 360 348 357 105 90 93 106 99 94 104 88 89 108 95 83 86 20 32 209 229 290 253 262 291 285 265 269 264 258 256 250 243 221 223 222 218 199 196 181
295 339 17 34 48 48 317 122 23 349 340 332 29 106 119 112 99 95 86 81 79 77 89 88 104 18 350 302 292 271 282 284 295 278 280 280 269 265 258 253 240 232 226 229 226 225 214 198 202
10 31 356 4 12 222 312 63 57 312 17 35 55 79 82 94 99 97 90 85 85 95 111 130 47 326 288 288 295 297 283 281 269 272 263 271 277 266 259 257 247 233 220 210 198 205 223 210 201
304 44 134 220 311 290 6 49 348 50 48 54 52 84 88 91 92 87 91 93 100 102 85 41 307 283 291 309 302 293 282 272 272 267 270 270 268 267 274 268 258 226 219 251 252 224 227 227 217
329 30 15 277 24 49 127 287 293 78 52 49 76 74 76 82 84 101 109 119 127 118 73 296 298 312 316 301 293 285 293 294 282 284 276 277 273 279 283 281 251 253 257 262 239 225 217 210 205
80 282 34 10 44 335 311 134 38 32 71 79 101 116 110 98 103 118 135 121 71 38 322 311 323 304 296 295 292 296 293 281 287 290 286 282 282 283 279 287 289 257 268 262 237 247 205 199 200
349 14 20 109 99 159 311 288 252 271 100 162 161 125 130 130 131 154 106 57 35 340 331 324 333 318 312 312 307 306 299 296 288 289 287 283 283 278 289 302 290 271 267 260 238 226 208 202 196
315 70 94 78 332 250 228 278 261 269 286 156 146 140 141 128 158 132 140 76 26 332 331 333 326 323 315 310 309 299 299 303 304 304 304 313 302 280 304 316 306 286 274 269 243 233 218 206 197